Location: Newark
(29.9790°N, 31.1340°E)
Time: 19:02:07
(UTC+00:00)

Vanguard 3 - Pass Details

Date: 20 January 2020
Orbit: 508 x 3263 km, 33.3° (Epoch: 17 February)

Event Time Altitude Azimuth Distance (km) Brightness Sun altitude
Rises 17:44:52 0° 257° (WSW) 7,226 13.1 -30.7°
Reaches altitude 10° 17:49:54 10° 259° (W) 6,137 12.5 -31.8°
Maximum altitude 18:08:58 83° 348° (NNW) 2,500 9.3 -35.9°
Enters shadow 18:11:50 65° 62° (ENE) 2,479 9.1 -36.5°
